#timestamp,LO_Frequency,Hit,StdDev 
1633298415.2,286046998.2,N
1633298435.9,286047000.0,N
1633298455.7,286046999.9,N
1633298475.6,286047000.6,N
1633298495.4,286047001.0,N
1633298515.2,286047000.2,N
1633298535.1,286047002.7,N
1633298536.0,286047002.7,N
1633298555.8,286047002.7,N
1633298575.7,286047002.1,N
1633298595.5,286047002.7,N
1633298615.3,286047000.2,N
1633298635.2,286047000.2,N
1633298655.0,286047000.3,N
1633298655.9,286047000.3,N
1633298675.8,286046999.3,N
1633298695.6,286046998.4,N
1633298715.4,286046998.6,N
1633298735.3,286046996.8,N
1633298755.1,286046997.4,N
1633298775.9,286046997.5,N
1633298795.7,286046999.3,N
1633298815.5,286046999.1,N
1633298835.4,286046999.6,N
1633298855.2,286046996.5,N
1633298875.1,286046995.5,N
1633298876.0,286046995.5,N
1633298895.8,286046997.5,N
1633298915.6,286046995.9,N
1633298935.5,286046995.1,N
1633298955.3,286046997.7,N
1633298975.1,286046997.4,N
1633298995.9,286046997.7,N
1633299015.7,286046999.6,N
1633299035.6,286046999.4,N
1633299055.4,286046997.1,N
1633299075.2,286046995.3,N
1633299095.1,286046995.7,N
1633299096.0,286046995.7,N
1633299115.8,286046996.1,N
1633299135.7,286046996.3,N
1633299155.5,286046994.0,Y
1633299175.3,286046996.7,P
1633299195.2,286046999.3,N
1633299215.0,286046998.6,N
1633299215.9,286046998.6,N
1633299235.7,286047000.7,N
1633299255.6,286046998.1,N
1633299275.4,286046999.6,N
1633299295.3,286046999.6,N
1633299315.1,286046997.2,N
1633299316.0,286046997.2,N
1633299335.8,286046998.7,N
1633299355.7,286046996.5,Y
1633299375.5,286046999.2,P
1633299395.4,286046997.1,P
1633299415.2,286046997.8,N
1633299435.0,286046996.6,Y
1633299435.9,286046996.6,P
1633299455.8,286047000.5,N
1633299475.6,286047002.7,N
1633299495.4,286047002.3,N
1633299515.3,286047001.5,N
1633299535.1,286047002.0,N
1633299555.9,286047002.4,N
1633299575.7,286047000.6,N
1633299595.5,286047000.6,N
1633299615.4,286047001.0,N
1633299635.2,286047000.8,N
1633299655.0,286047000.0,N
1633299656.0,286047000.0,N
1633299675.8,286047002.8,N
1633299695.6,286047000.1,N
1633299715.5,286047002.2,N
1633299735.3,286047004.3,N
1633299755.1,286047003.7,N
1633299775.9,286046999.9,N
1633299795.7,286047001.2,N
1633299815.6,286046998.1,N
1633299835.4,286047000.7,N
1633299855.2,286047000.5,N
1633299875.1,286047000.1,N
1633299876.0,286047000.1,N
1633299895.8,286047002.2,N
1633299915.7,286047001.7,N
1633299935.5,286047001.7,N
1633299955.3,286047004.3,N
1633299975.2,286047002.0,N
1633299995.0,286047000.4,N
1633299995.9,286047000.4,N
1633300015.8,286047000.4,N
1633300035.6,286047001.2,N
1633300055.4,286047001.1,N
1633300075.3,286046998.6,N
1633300095.1,286046998.9,N
1633300115.8,286046999.2,N
1633300135.7,286046997.0,N
1633300155.5,286046998.4,N
1633300175.4,286046998.4,N
1633300195.2,286046998.5,N
1633300215.0,286046996.5,N
1633300215.9,286046996.5,N
1633300235.8,286046998.9,N
1633300255.6,286046998.7,N
1633300275.4,286046999.3,N
1633300295.3,286046999.1,N
1633300315.1,286046996.9,N
1633300335.9,286046999.5,N
1633300355.7,286046997.0,N
1633300375.5,286046997.6,N
1633300395.4,286046996.5,N
1633300415.2,286046998.9,N
1633300435.1,286046998.5,N
1633300436.0,286046998.5,N
1633300455.8,286046998.7,N
1633300475.7,286046998.6,N
1633300495.5,286046998.9,N
1633300515.3,286047000.8,N
1633300535.2,286047001.1,N
1633300555.0,286046998.7,N
1633300555.9,286046998.7,N
1633300575.8,286046998.3,N
1633300595.6,286047000.8,N
1633300615.4,286046998.2,N
1633300635.3,286047000.9,N
1633300655.1,286047000.8,N
1633300675.8,286046998.1,N
1633300695.7,286046998.6,N
1633300715.5,286046999.0,N
1633300735.4,286046996.8,N
1633300755.2,286046997.3,N
1633300775.0,286046999.2,N
1633300775.9,286046999.2,N
1633300795.8,286046998.9,N
1633300815.6,286047000.7,N
1633300835.5,286047001.1,N
1633300855.3,286047000.6,N
1633300875.1,286046999.9,N
1633300895.9,286047002.2,N
1633300915.7,286047001.5,N
1633300935.6,286047000.2,N
1633300955.4,286047001.2,N
1633300975.2,286047001.0,N
1633300995.1,286046999.9,N
1633300996.0,286046999.9,N
1633301015.8,286047000.9,N
1633301035.6,286047000.4,N
1633301055.5,286047001.1,N
1633301075.3,286046999.4,N
1633301095.2,286046998.4,N
1633301115.9,286046999.2,N
1633301135.7,286046998.3,N
1633301155.6,286046998.4,N
1633301175.4,286047001.2,N
1633301195.2,286047000.9,N
1633301215.1,286047000.8,N
1633301216.0,286047000.8,N
1633301235.8,286047000.4,N
1633301255.7,286047002.4,N
1633301275.5,286047000.5,N
1633301295.3,286047002.8,N
1633301315.2,286047002.5,N
1633301335.0,286047001.9,N
1633301335.9,286047001.9,N
1633301355.8,286047002.2,N
1633301375.6,286046999.7,N
1633301395.4,286047002.7,N
1633301415.3,286047000.0,N
1633301435.1,286047001.1,N
1633301455.8,286046998.2,N
1633301475.7,286047001.1,N
1633301495.5,286046998.5,N
1633301515.4,286046998.7,N
1633301535.2,286047001.2,N
1633301555.0,286047000.6,N
1633301555.9,286047000.6,N
1633301575.8,286047000.8,N
1633301595.6,286047001.2,N
1633301615.4,286047001.0,N
1633301635.3,286047001.0,N
1633301655.1,286047001.0,N
1633301675.9,286047000.8,N
1633301695.7,286047000.7,N
1633301715.5,286046998.1,N
1633301735.4,286046998.2,N
1633301755.2,286047001.2,N
1633301775.1,286046998.6,N
1633301776.0,286046998.6,N
1633301795.8,286046997.2,N
1633301815.6,286046997.8,N
1633301835.5,286046996.7,N
1633301855.3,286046999.2,N
1633301875.1,286046998.8,N
1633301895.9,286046998.8,N
1633301915.7,286046999.4,N
1633301935.6,286046998.7,N
1633301955.4,286046998.5,N
1633301975.2,286046998.8,N
1633301995.1,286046999.4,N
1633301996.0,286046999.4,N
